WBANNO,USDM_WEEK,LONGITUDE,LATITUDE,SMVWC_5_CM_MEAN,SMANOM_5_CM_MEAN,SMPERC_5_CM_30COUNTS,SMPERC_5_CM_70COUNTS,SMVWC_10_CM_MEAN,SMANOM_10_CM_MEAN,SMPERC_10_CM_30COUNTS,SMPERC_10_CM_70COUNTS,SMVWC_20_CM_MEAN,SMANOM_20_CM_MEAN,SMPERC_20_CM_30COUNTS,SMPERC_20_CM_70COUNTS,SMVWC_50_CM_MEAN,SMANOM_50_CM_MEAN,SMPERC_50_CM_30COUNTS,SMPERC_50_CM_70COUNTS,SMVWC_100_CM_MEAN,SMANOM_100_CM_MEAN,SMPERC_100_CM_30COUNTS,SMPERC_100_CM_70COUNTS,SMVWC_TOP_CM_MEAN,SMANOM_TOP_CM_MEAN,SMPERC_TOP_CM_30COUNTS,SMPERC_TOP_CM_70COUNTS,SMVWC_COLUMN_CM_MEAN,SMANOM_COLUMN_CM_MEAN,SMPERC_COLUMN_CM_30COUNTS,SMPERC_COLUMN_CM_70COUNTS
54795,20100606,-70.95,43.11,,,,,,,,,,,,,,,,,,,,,,,,,,,,
54795,20100607,-70.95,43.11,,,,,,,,,,,,,,,,,,,,,,,,,,,,
54795,20100608,-70.95,43.11,,,,,,,,,,,,,,,,,,,,,,,,,,,,
54795,20100609,-70.95,43.11,,,,,,,,,,,,,,,,,,,,,,,,,,,,
54795,20100610,-70.95,43.11,,,,,,,,,,,,,,,,,,,,,,,,,,,,
54795,20100611,-70.95,43.11,0.21,0.83,0,1,0.275,0.86,0,1,,,,,,,,,,,,,0.242,0.86,0,1,,,,
54795,20100612,-70.95,43.11,0.21,0.83,0,1,0.275,0.87,0,1,,,,,,,,,,,,,0.243,0.87,0,1,,,,
54795,20100613,-70.95,43.11,0.211,0.83,0,1,0.275,0.87,0,1,,,,,,,,,,,,,0.243,0.86,0,1,,,,
54795,20100614,-70.95,43.11,0.208,0.8,0,1,0.271,0.84,0,1,,,,,,,,,,,,,0.239,0.83,0,1,,,,
54795,20100615,-70.95,43.11,0.207,0.78,0,1,0.269,0.83,0,1,,,,,,,,,,,,,0.238,0.82,0,1,,,,
54795,20100616,-70.95,43.11,0.205,0.76,0,1,0.268,0.82,0,1,,,,,,,,,,,,,0.236,0.8,0,1,,,,
54795,20100617,-70.95,43.11,0.204,0.73,0,1,0.267,0.81,0,1,,,,,,,,,,,,,0.235,0.78,0,1,,,,
54795,20100618,-70.95,43.11,0.197,0.67,0,1,0.262,0.77,0,1,,,,,,,,,,,,,0.23,0.73,0,1,,,,
54795,20100619,-70.95,43.11,0.192,0.61,0,0.929,0.257,0.73,0,1,,,,,,,,,,,,,0.225,0.68,0,1,,,,
54795,20100620,-70.95,43.11,0.186,0.54,0,0.786,0.251,0.69,0,1,,,,,,,,,,,,,0.218,0.62,0,0.964,,,,
54795,20100621,-70.95,43.11,0.178,0.46,0,0.643,0.243,0.64,0,1,,,,,,,,,,,,,0.211,0.56,0,0.821,,,,
54795,20100622,-70.95,43.11,0.17,0.38,0,0.5,0.235,0.58,0,0.893,,,,,,,,,,,,,0.202,0.49,0,0.679,,,,
54795,20100623,-70.95,43.11,0.162,0.3,0,0.357,0.225,0.52,0,0.75,,,,,,,,,,,,,0.193,0.42,0,0.536,,,,
54795,20100624,-70.95,43.11,0.157,0.27,0,0.214,0.218,0.48,0,0.673,,,,,,,,,,,,,0.188,0.38,0,0.393,,,,
54795,20100625,-70.95,43.11,0.152,0.23,0,0.071,0.21,0.44,0,0.619,,,,,,,,,,,,,0.181,0.34,0,0.25,,,,
54795,20100626,-70.95,43.11,0.146,0.18,0,0,0.203,0.4,0,0.476,,,,,,,,,,,,,0.175,0.3,0,0.107,,,,
54795,20100627,-70.95,43.11,0.141,0.14,0,0,0.197,0.37,0,0.333,,,,,,,,,,,,,0.169,0.26,0,0,,,,
54795,20100628,-70.95,43.11,0.136,0.1,0,0,0.191,0.34,0,0.19,,,,,,,,,,,,,0.164,0.23,0,0,,,,
54795,20100629,-70.95,43.11,0.133,0.08,0,0,0.186,0.31,0,0.155,,,,,,,,,,,,,0.16,0.2,0,0,,,,
54795,20100630,-70.95,43.11,0.129,0.04,0,0,0.181,0.29,0,0.155,,,,,,,,,,,,,0.155,0.17,0,0,,,,
54795,20100701,-70.95,43.11,0.119,-0.04,0,0,0.172,0.22,0,0.089,,,,,,,,,,,,,0.146,0.1,0,0,,,,
54795,20100702,-70.95,43.11,0.11,-0.13,0.054,0,0.162,0.15,0,0,,,,,,,,,,,,,0.136,0.01,0,0,,,,
54795,20100703,-70.95,43.11,0.101,-0.21,0.196,0,0.151,0.06,0,0,,,,,,,,,,,,,0.126,-0.08,0.006,0,,,,
54795,20100704,-70.95,43.11,0.093,-0.3,0.339,0,0.139,-0.03,0.012,0,,,,,,,,,,,,,0.116,-0.17,0.119,0,,,,
54795,20100705,-70.95,43.11,0.084,-0.39,0.482,0,0.127,-0.12,0.101,0,,,,,,,,,,,,,0.106,-0.27,0.262,0,,,,
54795,20100706,-70.95,43.11,0.075,-0.48,0.625,0,0.115,-0.22,0.244,0,,,,,,,,,,,,,0.095,-0.36,0.405,0,,,,
54795,20100707,-70.95,43.11,0.067,-0.56,0.768,0,0.103,-0.32,0.387,0,,,,,,,,,,,,,0.085,-0.46,0.548,0,,,,
54795,20100708,-70.95,43.11,0.06,-0.63,0.911,0,0.093,-0.4,0.53,0,,,,,,,,,,,,,0.077,-0.53,0.69,0,,,,
54795,20100709,-70.95,43.11,0.054,-0.7,1,0,0.084,-0.47,0.673,0,,,,,,,,,,,,,0.069,-0.61,0.833,0,,,,
54795,20100710,-70.95,43.11,0.048,-0.76,1,0,0.076,-0.54,0.815,0,,,,,,,,,,,,,0.062,-0.67,0.97,0,,,,
54795,20100711,-70.95,43.11,0.052,-0.71,0.875,0,0.077,-0.52,0.827,0,,,,,,,,,,,,,0.065,-0.64,0.881,0,,,,
54795,20100712,-70.95,43.11,0.058,-0.64,0.732,0,0.083,-0.46,0.738,0,,,,,,,,,,,,,0.071,-0.58,0.738,0,,,,
54795,20100713,-70.95,43.11,0.066,-0.55,0.589,0,0.091,-0.38,0.595,0,,,,,,,,,,,,,0.079,-0.49,0.595,0,,,,
54795,20100714,-70.95,43.11,0.079,-0.41,0.446,0.036,0.106,-0.24,0.452,0.036,,,,,,,,,,,,,0.092,-0.35,0.452,0.036,,,,
54795,20100715,-70.95,43.11,0.098,-0.18,0.304,0.179,0.132,0.01,0.31,0.179,,,,,,,,,,,,,0.115,-0.1,0.31,0.179,,,,
54795,20100716,-70.95,43.11,0.118,0.04,0.161,0.321,0.155,0.23,0.167,0.321,,,,,,,,,,,,,0.136,0.12,0.167,0.321,,,,
54795,20100717,-70.95,43.11,0.137,0.26,0.018,0.464,0.178,0.46,0.024,0.464,,,,,,,,,,,,,0.158,0.35,0.024,0.464,,,,
54795,20100718,-70.95,43.11,0.147,0.39,0,0.607,0.191,0.61,0,0.607,,,,,,,,,,,,,0.169,0.49,0,0.607,,,,
54795,20100719,-70.95,43.11,0.155,0.49,0,0.75,0.201,0.72,0,0.75,,,,,,,,,,,,,0.178,0.61,0,0.75,,,,
54795,20100720,-70.95,43.11,0.161,0.57,0,0.893,0.208,0.82,0,0.893,,,,,,,,,,,,,0.185,0.7,0,0.893,,,,
54795,20100721,-70.95,43.11,0.163,0.6,0,1,0.21,0.86,0,1,,,,,,,,,,,,,0.187,0.74,0,1,,,,
54795,20100722,-70.95,43.11,0.162,0.6,0,1,0.205,0.83,0,1,,,,,,,,,,,,,0.183,0.72,0,1,,,,
54795,20100723,-70.95,43.11,0.163,0.62,0,1,0.204,0.85,0,1,,,,,,,,,,,,,0.183,0.74,0,1,,,,
54795,20100724,-70.95,43.11,0.162,0.63,0,1,0.203,0.87,0,1,,,,,,,,,,,,,0.183,0.76,0,1,,,,
54795,20100725,-70.95,43.11,0.162,0.63,0,1,0.202,0.89,0,1,,,,,,,,,,,,,0.182,0.78,0,1,,,,
54795,20100726,-70.95,43.11,0.162,0.64,0,1,0.202,0.91,0,1,,,,,,,,,,,,,0.182,0.8,0,1,,,,
54795,20100727,-70.95,43.11,0.16,0.63,0,0.952,0.2,0.91,0,1,,,,,,,,,,,,,0.18,0.8,0,1,,,,
54795,20100728,-70.95,43.11,0.157,0.6,0,0.81,0.197,0.9,0,1,,,,,,,,,,,,,0.177,0.78,0,0.994,,,,
54795,20100729,-70.95,43.11,0.149,0.51,0,0.667,0.19,0.83,0,0.97,,,,,,,,,,,,,0.17,0.7,0,0.863,,,,
54795,20100730,-70.95,43.11,0.139,0.39,0,0.524,0.179,0.72,0,0.827,,,,,,,,,,,,,0.159,0.58,0,0.72,,,,
54795,20100731,-70.95,43.11,0.128,0.26,0,0.381,0.167,0.6,0,0.685,,,,,,,,,,,,,0.147,0.46,0,0.577,,,,
54795,20100801,-70.95,43.11,0.117,0.13,0,0.238,0.154,0.47,0,0.542,,,,,,,,,,,,,0.136,0.32,0,0.435,,,,
54795,20100802,-70.95,43.11,0.105,0,0.024,0.095,0.142,0.34,0,0.399,,,,,,,,,,,,,0.124,0.19,0,0.292,,,,
54795,20100803,-70.95,43.11,0.095,-0.11,0.125,0,0.13,0.22,0,0.256,,,,,,,,,,,,,0.113,0.07,0,0.149,,,,
54795,20100804,-70.95,43.11,0.085,-0.22,0.262,0,0.119,0.1,0,0.113,,,,,,,,,,,,,0.102,-0.04,0,0.012,,,,
54795,20100805,-70.95,43.11,0.077,-0.3,0.405,0,0.11,0,0,0,,,,,,,,,,,,,0.093,-0.14,0.024,0,,,,
54795,20100806,-70.95,43.11,0.075,-0.32,0.452,0,0.102,-0.08,0,0,,,,,,,,,,,,,0.088,-0.19,0.03,0,,,,
54795,20100807,-70.95,43.11,0.075,-0.32,0.452,0,0.096,-0.14,0,0,,,,,,,,,,,,,0.085,-0.23,0.03,0,,,,
54795,20100808,-70.95,43.11,0.073,-0.34,0.536,0,0.091,-0.2,0.03,0,,,,,,,,,,,,,0.082,-0.27,0.125,0,,,,
54795,20100809,-70.95,43.11,0.071,-0.36,0.655,0,0.086,-0.24,0.149,0,,,,,,,,,,,,,0.079,-0.31,0.268,0,,,,
54795,20100810,-70.95,43.11,0.078,-0.29,0.637,0.06,0.091,-0.2,0.232,0.054,,,,,,,,,,,,,0.085,-0.25,0.351,0.054,,,,
54795,20100811,-70.95,43.11,0.094,-0.13,0.5,0.202,0.108,-0.05,0.232,0.196,,,,,,,,,,,,,0.101,-0.09,0.351,0.196,,,,
54795,20100812,-70.95,43.11,0.108,0.01,0.357,0.28,0.123,0.1,0.232,0.339,,,,,,,,,,,,,0.116,0.05,0.327,0.339,,,,
54795,20100813,-70.95,43.11,0.116,0.08,0.31,0.28,0.137,0.23,0.232,0.482,,,,,,,,,,,,,0.127,0.15,0.321,0.411,,,,
54795,20100814,-70.95,43.11,0.121,0.14,0.31,0.28,0.15,0.35,0.232,0.607,,,,,,,,,,,,,0.136,0.24,0.321,0.411,,,,
54795,20100815,-70.95,43.11,0.128,0.21,0.226,0.28,0.161,0.46,0.202,0.613,,,,,,,,,,,,,0.145,0.33,0.226,0.411,,,,
54795,20100816,-70.95,43.11,0.134,0.28,0.083,0.28,0.171,0.55,0.083,0.613,,,,,,,,,,,,,0.153,0.42,0.083,0.411,,,,
54795,20100817,-70.95,43.11,0.133,0.27,0,0.22,0.173,0.57,0,0.56,,,,,,,,,,,,,0.153,0.42,0,0.357,,,,
54795,20100818,-70.95,43.11,0.122,0.17,0,0.077,0.162,0.48,0,0.417,,,,,,,,,,,,,0.142,0.32,0,0.214,,,,
54795,20100819,-70.95,43.11,0.112,0.07,0,0,0.152,0.39,0,0.274,,,,,,,,,,,,,0.132,0.23,0,0.071,,,,
54795,20100820,-70.95,43.11,0.103,-0.02,0,0,0.142,0.3,0,0.131,,,,,,,,,,,,,0.122,0.14,0,0,,,,
54795,20100821,-70.95,43.11,0.093,-0.11,0.113,0,0.132,0.2,0,0.006,,,,,,,,,,,,,0.113,0.04,0,0,,,,
54795,20100822,-70.95,43.11,0.085,-0.19,0.256,0,0.122,0.11,0,0,,,,,,,,,,,,,0.104,-0.04,0.071,0,,,,
54795,20100823,-70.95,43.11,0.078,-0.25,0.399,0,0.114,0.03,0,0,,,,,,,,,,,,,0.096,-0.12,0.214,0,,,,
54795,20100824,-70.95,43.11,0.073,-0.3,0.435,0,0.106,-0.05,0,0,,,,,,,,,,,,,0.09,-0.18,0.226,0,,,,
54795,20100825,-70.95,43.11,0.074,-0.29,0.435,0.03,0.101,-0.1,0,0,,,,,,,,,,,,,0.087,-0.2,0.226,0.006,,,,
54795,20100826,-70.95,43.11,0.096,-0.03,0.435,0.173,0.12,0.09,0,0.137,,,,,,,,,,,,,0.108,0.02,0.226,0.149,,,,
54795,20100827,-70.95,43.11,0.112,0.16,0.435,0.315,0.136,0.26,0,0.28,,,,,,,,,,,,,0.124,0.2,0.226,0.292,,,,
54795,20100828,-70.95,43.11,0.128,0.33,0.321,0.458,0.152,0.42,0,0.423,,,,,,,,,,,,,0.14,0.37,0.226,0.435,,,,
54795,20100829,-70.95,43.11,0.142,0.5,0.179,0.601,0.167,0.58,0,0.565,,,,,,,,,,,,,0.155,0.53,0.155,0.577,,,,
54795,20100830,-70.95,43.11,0.154,0.64,0.036,0.744,0.182,0.73,0,0.708,,,,,,,,,,,,,0.168,0.68,0.012,0.72,,,,
54795,20100831,-70.95,43.11,0.164,0.75,0,0.78,0.194,0.86,0,0.851,,,,,,,,,,,,,0.179,0.8,0,0.863,,,,
54795,20100901,-70.95,43.11,0.168,0.8,0,0.75,0.204,0.97,0,0.994,,,,,,,,,,,,,0.186,0.88,0,0.911,,,,
54795,20100902,-70.95,43.11,0.149,0.61,0,0.607,0.189,0.83,0,0.905,,,,,,,,,,,,,0.169,0.72,0,0.768,,,,
54795,20100903,-70.95,43.11,0.137,0.48,0,0.464,0.177,0.71,0,0.762,,,,,,,,,,,,,0.157,0.6,0,0.625,,,,
54795,20100904,-70.95,43.11,0.125,0.36,0,0.321,0.166,0.61,0,0.619,,,,,,,,,,,,,0.146,0.49,0,0.482,,,,
54795,20100905,-70.95,43.11,0.115,0.25,0,0.179,0.156,0.51,0,0.476,,,,,,,,,,,,,0.135,0.39,0,0.339,,,,
54795,20100906,-70.95,43.11,0.105,0.14,0,0.036,0.145,0.41,0,0.333,,,,,,,,,,,,,0.125,0.29,0,0.196,,,,
54795,20100907,-70.95,43.11,0.096,0.04,0,0,0.135,0.32,0,0.19,,,,,,,,,,,,,0.116,0.19,0,0.054,,,,
54795,20100908,-70.95,43.11,0.087,-0.05,0,0,0.126,0.23,0,0.048,,,,,,,,,,,,,0.107,0.1,0,0,,,,
54795,20100909,-70.95,43.11,0.08,-0.12,0,0,0.118,0.15,0,0,,,,,,,,,,,,,0.099,0.03,0,0,,,,
54795,20100910,-70.95,43.11,0.075,-0.18,0,0,0.112,0.09,0,0,,,,,,,,,,,,,0.093,-0.03,0,0,,,,
54795,20100911,-70.95,43.11,0.071,-0.22,0,0,0.105,0.03,0,0,,,,,,,,,,,,,0.088,-0.09,0,0,,,,
54795,20100912,-70.95,43.11,0.066,-0.27,0.065,0,0.1,-0.02,0,0,,,,,,,,,,,,,0.083,-0.13,0,0,,,,
54795,20100913,-70.95,43.11,0.063,-0.3,0.113,0,0.095,-0.06,0,0,,,,,,,,,,,,,0.079,-0.17,0,0,,,,
54795,20100914,-70.95,43.11,0.063,-0.29,0.149,0,0.093,-0.08,0,0,,,,,,,,,,,,,0.078,-0.17,0,0,,,,
54795,20100915,-70.95,43.11,0.065,-0.28,0.149,0,0.093,-0.07,0,0,,,,,,,,,,,,,0.079,-0.16,0,0,,,,
54795,20100916,-70.95,43.11,0.065,-0.27,0.149,0,0.093,-0.07,0,0,,,,,,,,,,,,,0.079,-0.16,0,0,,,,
54795,20100917,-70.95,43.11,0.068,-0.24,0.149,0.03,0.095,-0.06,0,0.018,,,,,,,,,,,,,0.082,-0.13,0,0.03,,,,
54795,20100918,-70.95,43.11,0.082,-0.11,0.149,0.173,0.108,0.05,0,0.155,,,,,,,,,,,,,0.095,-0.01,0,0.173,,,,
54795,20100919,-70.95,43.11,0.094,0,0.083,0.22,0.119,0.15,0,0.274,,,,,,,,,,,,,0.107,0.09,0,0.286,,,,
54795,20100920,-70.95,43.11,0.104,0.09,0.036,0.22,0.13,0.23,0,0.274,,,,,,,,,,,,,0.117,0.17,0,0.286,,,,
54795,20100921,-70.95,43.11,0.111,0.14,0,0.22,0.137,0.27,0,0.274,,,,,,,,,,,,,0.124,0.22,0,0.286,,,,
54795,20100922,-70.95,43.11,0.115,0.16,0,0.22,0.142,0.29,0,0.274,,,,,,,,,,,,,0.128,0.24,0,0.286,,,,
54795,20100923,-70.95,43.11,0.118,0.17,0,0.22,0.146,0.3,0,0.274,,,,,,,,,,,,,0.132,0.25,0,0.286,,,,
54795,20100924,-70.95,43.11,0.118,0.15,0,0.19,0.147,0.28,0,0.256,,,,,,,,,,,,,0.132,0.21,0,0.256,,,,
54795,20100925,-70.95,43.11,0.107,0.01,0,0.048,0.136,0.15,0,0.119,,,,,,,,,,,,,0.122,0.07,0,0.113,,,,
54795,20100926,-70.95,43.11,0.097,-0.12,0.113,0,0.126,0.02,0.036,0,,,,,,,,,,,,,0.112,-0.06,0.125,0,,,,
54795,20100927,-70.95,43.11,0.088,-0.24,0.256,0,0.117,-0.1,0.179,0,,,,,,,,,,,,,0.103,-0.18,0.268,0,,,,
54795,20100928,-70.95,43.11,0.081,-0.34,0.399,0,0.11,-0.21,0.321,0,,,,,,,,,,,,,0.095,-0.3,0.411,0,,,,
54795,20100929,-70.95,43.11,0.083,-0.35,0.452,0,0.109,-0.25,0.381,0,,,,,,,,,,,,,0.096,-0.32,0.464,0,,,,
54795,20100930,-70.95,43.11,0.09,-0.32,0.452,0,0.114,-0.24,0.381,0,,,,,,,,,,,,,0.102,-0.3,0.464,0,,,,
54795,20101001,-70.95,43.11,0.097,-0.29,0.452,0,0.12,-0.22,0.381,0,,,,,,,,,,,,,0.108,-0.27,0.464,0,,,,
54795,20101002,-70.95,43.11,0.115,-0.13,0.452,0.107,0.138,-0.07,0.381,0.107,,,,,,,,,,,,,0.127,-0.11,0.464,0.107,,,,
54795,20101003,-70.95,43.11,0.133,0.02,0.339,0.25,0.155,0.08,0.345,0.25,,,,,,,,,,,,,0.144,0.04,0.339,0.25,,,,
54795,20101004,-70.95,43.11,0.148,0.15,0.196,0.387,0.171,0.21,0.202,0.393,,,,,,,,,,,,,0.16,0.18,0.196,0.393,,,,
54795,20101005,-70.95,43.11,0.162,0.27,0.054,0.387,0.186,0.34,0.06,0.536,,,,,,,,,,,,,0.174,0.31,0.054,0.458,,,,
54795,20101006,-70.95,43.11,0.166,0.3,0,0.387,0.194,0.41,0,0.655,,,,,,,,,,,,,0.18,0.37,0,0.458,,,,
54795,20101007,-70.95,43.11,0.179,0.43,0,0.512,0.207,0.55,0,0.792,,,,,,,,,,,,,0.193,0.5,0,0.589,,,,
54795,20101008,-70.95,43.11,0.189,0.52,0,0.655,0.219,0.67,0,0.935,,,,,,,,,,,,,0.204,0.61,0,0.732,,,,
54795,20101009,-70.95,43.11,0.186,0.48,0,0.69,0.217,0.65,0,0.97,,,,,,,,,,,,,0.202,0.57,0,0.768,,,,
54795,20101010,-70.95,43.11,0.183,0.44,0,0.607,0.215,0.62,0,0.97,,,,,,,,,,,,,0.199,0.54,0,0.768,,,,
54795,20101011,-70.95,43.11,0.182,0.4,0,0.47,0.214,0.61,0,0.97,,,,,,,,,,,,,0.198,0.52,0,0.679,,,,
54795,20101012,-70.95,43.11,0.18,0.38,0,0.47,0.214,0.59,0,0.875,,,,,,,,,,,,,0.197,0.49,0,0.613,,,,
54795,20101013,-70.95,43.11,0.18,0.35,0,0.47,0.214,0.58,0,0.756,,,,,,,,,,,,,0.197,0.47,0,0.613,,,,
54795,20101014,-70.95,43.11,0.167,0.19,0,0.345,0.204,0.44,0,0.619,,,,,,,,,,,,,0.185,0.32,0,0.482,,,,
54795,20101015,-70.95,43.11,0.163,0.12,0,0.232,0.199,0.37,0,0.506,,,,,,,,,,,,,0.181,0.25,0,0.369,,,,
54795,20101016,-70.95,43.11,0.171,0.21,0,0.232,0.206,0.44,0,0.506,,,,,,,,,,,,,0.188,0.33,0,0.369,,,,
54795,20101017,-70.95,43.11,0.175,0.24,0,0.31,0.21,0.46,0,0.506,,,,,,,,,,,,,0.192,0.35,0,0.369,,,,
54795,20101018,-70.95,43.11,0.178,0.26,0,0.321,0.214,0.47,0,0.506,,,,,,,,,,,,,0.196,0.37,0,0.375,,,,
54795,20101019,-70.95,43.11,0.181,0.28,0,0.321,0.217,0.47,0,0.476,,,,,,,,,,,,,0.199,0.38,0,0.375,,,,
54795,20101020,-70.95,43.11,0.184,0.3,0,0.323,0.22,0.47,0,0.479,,,,,,,,,,,,,0.202,0.39,0,0.377,,,,
54795,20101021,-70.95,43.11,0.187,0.31,0,0.323,0.223,0.46,0,0.479,,,,,,,,,,,,,0.205,0.39,0,0.377,,,,
54795,20101022,-70.95,43.11,0.186,0.26,0,0.293,0.223,0.42,0,0.449,,,,,,,,,,,,,0.205,0.35,0,0.347,,,,
54795,20101023,-70.95,43.11,0.175,0.09,0,0.15,0.213,0.27,0,0.305,,,,,,,,,,,,,0.194,0.19,0,0.204,,,,
54795,20101024,-70.95,43.11,0.17,-0.02,0.096,0.012,0.208,0.17,0,0.162,,,,,,,,,,,,,0.189,0.08,0,0.06,,,,
54795,20101025,-70.95,43.11,0.166,-0.11,0.24,0,0.204,0.09,0,0.018,,,,,,,,,,,,,0.185,0,0,0,,,,
54795,20101026,-70.95,43.11,0.164,-0.18,0.383,0,0.202,0.04,0,0,,,,,,,,,,,,,0.183,-0.06,0,0,,,,
54795,20101027,-70.95,43.11,0.164,-0.21,0.387,0,0.201,0,0,0,,,,,,,,,,,,,0.182,-0.09,0,0,,,,
54795,20101028,-70.95,43.11,0.169,-0.15,0.387,0.071,0.203,0.02,0,0.065,,,,,,,,,,,,,0.186,-0.06,0,0.071,,,,
54795,20101029,-70.95,43.11,0.172,-0.11,0.387,0.071,0.205,0.04,0,0.089,,,,,,,,,,,,,0.189,-0.02,0,0.101,,,,
54795,20101030,-70.95,43.11,0.175,-0.09,0.387,0.071,0.207,0.05,0,0.089,,,,,,,,,,,,,0.191,-0.01,0,0.101,,,,
54795,20101031,-70.95,43.11,0.177,-0.09,0.292,0.071,0.208,0.05,0,0.089,,,,,,,,,,,,,0.192,-0.02,0,0.101,,,,
54795,20101101,-70.95,43.11,0.177,-0.11,0.25,0.071,0.209,0.03,0,0.089,,,,,,,,,,,,,0.193,-0.04,0.054,0.101,,,,
54795,20101102,-70.95,43.11,0.178,-0.14,0.25,0.071,0.209,0.01,0,0.089,,,,,,,,,,,,,0.193,-0.07,0.196,0.101,,,,
54795,20101103,-70.95,43.11,0.176,-0.21,0.387,0.071,0.208,-0.04,0.024,0.089,,,,,,,,,,,,,0.192,-0.14,0.339,0.101,,,,
54795,20101104,-70.95,43.11,0.169,-0.37,0.53,0,0.204,-0.14,0.167,0.024,,,,,,,,,,,,,0.187,-0.27,0.482,0.03,,,,
54795,20101105,-70.95,43.11,0.176,-0.24,0.554,0.113,0.21,0,0.196,0.107,,,,,,,,,,,,,0.193,-0.13,0.506,0.113,,,,
54795,20101106,-70.95,43.11,0.182,-0.11,0.554,0.256,0.217,0.14,0.196,0.25,,,,,,,,,,,,,0.2,0.01,0.506,0.256,,,,
54795,20101107,-70.95,43.11,0.187,-0.03,0.554,0.304,0.222,0.24,0.196,0.393,,,,,,,,,,,,,0.205,0.11,0.506,0.381,,,,
54795,20101108,-70.95,43.11,0.195,0.13,0.452,0.345,0.229,0.38,0.196,0.524,,,,,,,,,,,,,0.212,0.27,0.452,0.429,,,,
54795,20101109,-70.95,43.11,0.205,0.35,0.31,0.488,0.239,0.61,0.196,0.667,,,,,,,,,,,,,0.222,0.5,0.31,0.571,,,,
54795,20101110,-70.95,43.11,0.213,0.52,0.167,0.571,0.246,0.76,0.173,0.81,,,,,,,,,,,,,0.23,0.66,0.167,0.714,,,,
54795,20101111,-70.95,43.11,0.221,0.67,0.024,0.607,0.252,0.9,0.03,0.952,,,,,,,,,,,,,0.237,0.81,0.024,0.786,,,,
54795,20101112,-70.95,43.11,0.214,0.5,0,0.494,0.247,0.78,0,0.863,,,,,,,,,,,,,0.231,0.66,0,0.673,,,,
54795,20101113,-70.95,43.11,0.208,0.34,0,0.351,0.242,0.63,0,0.72,,,,,,,,,,,,,0.225,0.5,0,0.53,,,,
54795,20101114,-70.95,43.11,0.205,0.24,0.125,0.304,0.238,0.54,0,0.577,,,,,,,,,,,,,0.222,0.4,0,0.405,,,,
54795,20101115,-70.95,43.11,0.199,0.07,0.268,0.262,0.234,0.4,0,0.446,,,,,,,,,,,,,0.216,0.25,0,0.357,,,,
54795,20101116,-70.95,43.11,0.191,-0.15,0.411,0.119,0.226,0.2,0,0.304,,,,,,,,,,,,,0.208,0.03,0.018,0.214,,,,
54795,20101117,-70.95,43.11,0.188,-0.24,0.53,0.054,0.223,0.1,0,0.173,,,,,,,,,,,,,0.205,-0.07,0.125,0.083,,,,
54795,20101118,-70.95,43.11,0.193,-0.11,0.53,0.161,0.228,0.26,0,0.173,,,,,,,,,,,,,0.211,0.08,0.125,0.155,,,,
54795,20101119,-70.95,43.11,0.195,-0.07,0.53,0.179,0.231,0.31,0,0.298,,,,,,,,,,,,,0.213,0.13,0.125,0.226,,,,
54795,20101120,-70.95,43.11,0.196,-0.05,0.53,0.179,0.233,0.35,0,0.387,,,,,,,,,,,,,0.214,0.16,0.125,0.226,,,,
54795,20101121,-70.95,43.11,0.198,-0.03,0.411,0.179,0.234,0.39,0,0.387,,,,,,,,,,,,,0.216,0.2,0.125,0.226,,,,
54795,20101122,-70.95,43.11,0.199,-0.02,0.375,0.179,0.236,0.41,0,0.387,,,,,,,,,,,,,0.217,0.22,0.125,0.226,,,,
54795,20101123,-70.95,43.11,0.2,-0.01,0.375,0.179,0.237,0.43,0,0.387,,,,,,,,,,,,,0.219,0.23,0.107,0.226,,,,
54795,20101124,-70.95,43.11,0.199,-0.06,0.399,0.161,0.238,0.42,0,0.375,,,,,,,,,,,,,0.218,0.21,0,0.214,,,,
54795,20101125,-70.95,43.11,0.19,-0.31,0.542,0.018,0.229,0.17,0,0.232,,,,,,,,,,,,,0.21,-0.05,0.113,0.071,,,,
54795,20101126,-70.95,43.11,0.187,-0.43,0.673,0.006,0.226,0.04,0,0.089,,,,,,,,,,,,,0.206,-0.18,0.244,0.006,,,,
54795,20101127,-70.95,43.11,0.191,-0.31,0.673,0.113,0.229,0.14,0,0.143,,,,,,,,,,,,,0.21,-0.06,0.244,0.149,,,,
54795,20101128,-70.95,43.11,0.193,-0.27,0.667,0.113,0.23,0.18,0,0.268,,,,,,,,,,,,,0.212,-0.02,0.244,0.167,,,,
54795,20101129,-70.95,43.11,0.195,-0.24,0.577,0.113,0.231,0.2,0,0.268,,,,,,,,,,,,,0.213,0,0.244,0.167,,,,
54795,20101130,-70.95,43.11,0.195,-0.24,0.577,0.113,0.232,0.2,0,0.268,,,,,,,,,,,,,0.213,0,0.262,0.167,,,,
54795,20101201,-70.95,43.11,0.196,-0.24,0.548,0.113,0.232,0.2,0,0.268,,,,,,,,,,,,,0.214,0,0.321,0.167,,,,
54795,20101202,-70.95,43.11,0.204,-0.01,0.405,0.196,0.239,0.39,0,0.345,,,,,,,,,,,,,0.222,0.23,0.208,0.25,,,,
54795,20101203,-70.95,43.11,0.21,0.14,0.274,0.25,0.244,0.56,0,0.488,,,,,,,,,,,,,0.227,0.41,0.077,0.375,,,,
54795,20101204,-70.95,43.11,0.207,0.04,0.274,0.143,0.242,0.48,0,0.452,,,,,,,,,,,,,0.225,0.31,0.077,0.232,,,,
54795,20101205,-70.95,43.11,0.207,-0.01,0.333,0.143,0.242,0.44,0,0.327,,,,,,,,,,,,,0.224,0.27,0.077,0.214,,,,
54795,20101206,-70.95,43.11,0.206,-0.03,0.458,0.143,0.242,0.42,0,0.327,,,,,,,,,,,,,0.224,0.25,0.077,0.214,,,,
54795,20101207,-70.95,43.11,0.206,-0.05,0.458,0.143,0.242,0.41,0,0.327,,,,,,,,,,,,,0.224,0.24,0.143,0.214,,,,
54795,20101208,-70.95,43.11,0.206,-0.09,0.488,0.143,0.242,0.4,0,0.327,,,,,,,,,,,,,0.224,0.22,0.226,0.214,,,,
54795,20101209,-70.95,43.11,0.2,-0.27,0.56,0.06,0.236,0.19,0.018,0.25,,,,,,,,,,,,,0.218,0.02,0.298,0.131,,,,
54795,20101210,-70.95,43.11,0.197,-0.37,0.631,0,0.232,0.04,0.089,0.125,,,,,,,,,,,,,0.215,-0.11,0.336,0,,,,
54795,20101211,-70.95,43.11,,,,,0.232,0.02,0.089,0.018,,,,,,,,,,,,,,,,,,,,
54795,20101212,-70.95,43.11,,,,,0.233,0.04,0.089,0.024,,,,,,,,,,,,,,,,,,,,
54795,20101213,-70.95,43.11,,,,,0.244,0.41,0.091,0.127,,,,,,,,,,,,,,,,,,,,
54795,20101214,-70.95,43.11,,,,,0.25,0.58,0.091,0.273,,,,,,,,,,,,,,,,,,,,
54795,20101215,-70.95,43.11,,,,,0.253,0.67,0.091,0.364,,,,,,,,,,,,,,,,,,,,
54795,20101216,-70.95,43.11,,,,,0.255,0.73,0.073,0.364,,,,,,,,,,,,,,,,,,,,
54795,20101217,-70.95,43.11,,,,,0.257,0.78,0,0.43,,,,,,,,,,,,,,,,,,,,
54795,20101218,-70.95,43.11,,,,,0.258,0.82,0,0.561,,,,,,,,,,,,,,,,,,,,
54795,20101219,-70.95,43.11,,,,,0.26,0.9,0,0.65,,,,,,,,,,,,,,,,,,,,
54795,20101220,-70.95,43.11,,,,,,,,,,,,,,,,,,,,,,,,,,,,
54795,20101221,-70.95,43.11,,,,,,,,,,,,,,,,,,,,,,,,,,,,
54795,20101222,-70.95,43.11,,,,,,,,,,,,,,,,,,,,,,,,,,,,
54795,20101223,-70.95,43.11,,,,,,,,,,,,,,,,,,,,,,,,,,,,
54795,20101224,-70.95,43.11,,,,,,,,,,,,,,,,,,,,,,,,,,,,
54795,20101225,-70.95,43.11,,,,,,,,,,,,,,,,,,,,,,,,,,,,
54795,20101226,-70.95,43.11,,,,,,,,,,,,,,,,,,,,,,,,,,,,
54795,20101227,-70.95,43.11,,,,,,,,,,,,,,,,,,,,,,,,,,,,
54795,20101228,-70.95,43.11,,,,,,,,,,,,,,,,,,,,,,,,,,,,
54795,20101229,-70.95,43.11,,,,,,,,,,,,,,,,,,,,,,,,,,,,
54795,20101230,-70.95,43.11,,,,,,,,,,,,,,,,,,,,,,,,,,,,
54795,20101231,-70.95,43.11,,,,,,,,,,,,,,,,,,,,,,,,,,,,
54795,20110101,-70.95,43.11,,,,,,,,,,,,,,,,,,,,,,,,,,,,
54795,20110102,-70.95,43.11,,,,,,,,,,,,,,,,,,,,,,,,,,,,
54795,20110103,-70.95,43.11,,,,,,,,,,,,,,,,,,,,,,,,,,,,
54795,20110104,-70.95,43.11,,,,,,,,,,,,,,,,,,,,,,,,,,,,
54795,20110105,-70.95,43.11,,,,,,,,,,,,,,,,,,,,,,,,,,,,
54795,20110106,-70.95,43.11,,,,,,,,,,,,,,,,,,,,,,,,,,,,
54795,20110107,-70.95,43.11,,,,,,,,,,,,,,,,,,,,,,,,,,,,
54795,20110108,-70.95,43.11,,,,,,,,,,,,,,,,,,,,,,,,,,,,
54795,20110109,-70.95,43.11,,,,,,,,,,,,,,,,,,,,,,,,,,,,
54795,20110110,-70.95,43.11,,,,,,,,,,,,,,,,,,,,,,,,,,,,
54795,20110111,-70.95,43.11,,,,,,,,,,,,,,,,,,,,,,,,,,,,
54795,20110112,-70.95,43.11,,,,,,,,,,,,,,,,,,,,,,,,,,,,
54795,20110113,-70.95,43.11,,,,,,,,,,,,,,,,,,,,,,,,,,,,
54795,20110114,-70.95,43.11,,,,,,,,,,,,,,,,,,,,,,,,,,,,
54795,20110115,-70.95,43.11,,,,,,,,,,,,,,,,,,,,,,,,,,,,
54795,20110116,-70.95,43.11,,,,,,,,,,,,,,,,,,,,,,,,,,,,
54795,20110117,-70.95,43.11,,,,,,,,,,,,,,,,,,,,,,,,,,,,
54795,20110118,-70.95,43.11,,,,,,,,,,,,,,,,,,,,,,,,,,,,
54795,20110119,-70.95,43.11,,,,,,,,,,,,,,,,,,,,,,,,,,,,
54795,20110120,-70.95,43.11,,,,,,,,,,,,,,,,,,,,,,,,,,,,
54795,20110121,-70.95,43.11,,,,,,,,,,,,,,,,,,,,,,,,,,,,
54795,20110122,-70.95,43.11,,,,,,,,,,,,,,,,,,,,,,,,,,,,
54795,20110123,-70.95,43.11,,,,,,,,,,,,,,,,,,,,,,,,,,,,
54795,20110124,-70.95,43.11,,,,,,,,,,,,,,,,,,,,,,,,,,,,
54795,20110125,-70.95,43.11,,,,,,,,,,,,,,,,,,,,,,,,,,,,
54795,20110126,-70.95,43.11,,,,,,,,,,,,,,,,,,,,,,,,,,,,
54795,20110127,-70.95,43.11,,,,,,,,,,,,,,,,,,,,,,,,,,,,
54795,20110128,-70.95,43.11,,,,,,,,,,,,,,,,,,,,,,,,,,,,
54795,20110129,-70.95,43.11,,,,,,,,,,,,,,,,,,,,,,,,,,,,
54795,20110130,-70.95,43.11,,,,,,,,,,,,,,,,,,,,,,,,,,,,
54795,20110131,-70.95,43.11,,,,,,,,,,,,,,,,,,,,,,,,,,,,
54795,20110201,-70.95,43.11,,,,,,,,,,,,,,,,,,,,,,,,,,,,
54795,20110202,-70.95,43.11,,,,,,,,,,,,,,,,,,,,,,,,,,,,
54795,20110203,-70.95,43.11,,,,,,,,,,,,,,,,,,,,,,,,,,,,
54795,20110204,-70.95,43.11,,,,,,,,,,,,,,,,,,,,,,,,,,,,
54795,20110205,-70.95,43.11,,,,,,,,,,,,,,,,,,,,,,,,,,,,
54795,20110206,-70.95,43.11,,,,,,,,,,,,,,,,,,,,,,,,,,,,
54795,20110207,-70.95,43.11,,,,,,,,,,,,,,,,,,,,,,,,,,,,
54795,20110208,-70.95,43.11,,,,,,,,,,,,,,,,,,,,,,,,,,,,
54795,20110209,-70.95,43.11,,,,,,,,,,,,,,,,,,,,,,,,,,,,
54795,20110210,-70.95,43.11,,,,,,,,,,,,,,,,,,,,,,,,,,,,
54795,20110211,-70.95,43.11,,,,,,,,,,,,,,,,,,,,,,,,,,,,
54795,20110212,-70.95,43.11,,,,,,,,,,,,,,,,,,,,,,,,,,,,
54795,20110213,-70.95,43.11,,,,,,,,,,,,,,,,,,,,,,,,,,,,
54795,20110214,-70.95,43.11,,,,,,,,,,,,,,,,,,,,,,,,,,,,
54795,20110215,-70.95,43.11,,,,,,,,,,,,,,,,,,,,,,,,,,,,
54795,20110216,-70.95,43.11,,,,,,,,,,,,,,,,,,,,,,,,,,,,
54795,20110217,-70.95,43.11,,,,,,,,,,,,,,,,,,,,,,,,,,,,
54795,20110218,-70.95,43.11,,,,,,,,,,,,,,,,,,,,,,,,,,,,
54795,20110219,-70.95,43.11,,,,,,,,,,,,,,,,,,,,,,,,,,,,
54795,20110220,-70.95,43.11,,,,,,,,,,,,,,,,,,,,,,,,,,,,
54795,20110221,-70.95,43.11,,,,,,,,,,,,,,,,,,,,,,,,,,,,
54795,20110222,-70.95,43.11,,,,,,,,,,,,,,,,,,,,,,,,,,,,
54795,20110223,-70.95,43.11,,,,,,,,,,,,,,,,,,,,,,,,,,,,
54795,20110224,-70.95,43.11,,,,,,,,,,,,,,,,,,,,,,,,,,,,
54795,20110225,-70.95,43.11,,,,,,,,,,,,,,,,,,,,,,,,,,,,